CAPE
0 0 0 0 0 0 0 0 0 0 0 0 0 0 1 1 1 0 0 0 0 0 0 0 0 0 0 0 0 0 0 0 0 1 0 0 0 0 0 0 0 0 0
0 0 0 0 0 0 0 0 0 0 0 0 0 0 0 0 2 0 0 0 0 0 0 0 0 0 0 0 0 0 0 0 0 0 1 0 1 1 1 1 0 0 0
0 0 0 0 0 0 0 0 0 0 0 0 0 0 1 0 0 1 0 0 0 0 0 0 0 0 0 0 0 0 0 0 0 0 0 0 1 0 1 1 0 0 0
0 0 0 0 0 0 0 0 0 0 0 0 0 0 0 0 0 0 0 0 0 0 0 0 0 0 0 0 0 0 0 0 0 0 1 1 2 1 0 1 2 1 0
0 0 0 0 0 0 0 0 0 0 0 0 0 0 0 0 0 0 0 0 0 0 0 0 0 0 0 0 0 0 0 0 0 0 0 1 3 1 3 0 0 0 0
0 0 0 0 0 0 0 0 0 0 0 0 0 0 0 0 2 1 0 1 0 0 0 0 0 0 0 0 0 0 0 0 0 0 1 0 0 2 1 1 0 1 0
0 0 0 0 0 0 0 0 0 0 0 0 0 0 0 0 1 0 0 2 1 0 0 0 0 0 0 0 0 0 0 0 0 0 0 0 0 0 0 1 0 0 1
0 0 0 0 0 0 0 0 0 0 0 0 0 0 0 0 1 1 0 0 1 1 0 0 0 0 0 0 0 0 0 0 0 0 0 0 0 0 0 0 0 0 0
0 0 0 0 0 0 0 0 0 0 0 0 0 0 0 0 1 1 1 2 0 1 0 0 0 0 0 0 0 0 0 0 0 0 0 0 0 0 0 0 0 0 0
0 0 0 0 0 0 0 0 0 0 0 0 0 0 0 0 0 0 1 1 1 1 0 0 0 0 0 0 0 0 0 0 0 0 0 1 0 1 0 0 0 0 0
0 0 0 0 0 0 0 0 0 0 0 0 0 0 0 0 0 0 1 1 1 1 1 0 0 0 0 0 0 0 0 1 0 0 0 1 1 0 0 0 0 0 0
0 0 0 0 0 0 0 0 0 0 0 0 0 0 0 0 0 0 0 0 2 0 0 0 0 0 0 0 0 0 0 0 1 0 2 0 1 0 3 1 2 0 0
0 0 0 0 0 0 0 0 0 0 0 0 0 0 0 0 0 0 0 0 0 1 0 0 0 0 2 1 0 1 0 1 1 1 0 0 0 0 3 2 2 0 0
0 0 0 0 0 0 0 0 0 0 0 0 0 0 0 0 0 0 0 0 0 0 0 0 0 1 1 1 0 1 0 1 1 1 1 1 0 1 3 3 2 1 0
0 0 0 0 0 0 0 0 0 0 0 0 0 0 0 0 0 0 0 0 1 0 0 0 0 1 1 0 0 1 1 0 0 0 1 0 0 1 1 2 2 3 0
0 0 0 0 0 0 0 0 0 0 0 0 0 0 0 0 0 0 0 0 0 0 0 0 1 0 1 1 1 2 1 1 1 1 0 0 0 0 0 1 2 1 0
0 0 0 0 0 0 0 0 0 0 0 0 0 0 0 0 0 0 0 0 0 0 1 0 0 0 0 1 1 2 3 1 1 1 1 0 0 0 0 0 0 1 0
0 0 0 0 0 0 0 1 0 1 0 0 0 0 0 0 0 0 0 0 0 0 0 2 1 0 0 0 1 1 2 1 1 1 0 0 0 0 0 0 0 0 0
0 0 0 0 0 0 0 0 0 0 0 0 0 0 0 0 0 0 0 0 0 0 1 1 1 0 0 0 1 0 1 1 2 2 0 0 0 0 0 0 0 0 0
0 0 0 0 0 0 0 0 1 0 0 0 0 0 0 0 0 0 0 0 0 0 1 0 0 1 0 0 0 0 1 2 1 1 0 0 0 0 0 0 0 0 0
0 0 0 0 0 0 0 0 0 0 0 0 0 0 0 0 0 0 0 0 0 0 0 3 0 0 1 0 1 0 0 1 1 1 0 0 0 0 0 0 0 0 0
0 0 0 0 0 0 0 0 0 0 0 0 0 0 0 0 0 0 0 0 0 0 1 2 0 0 0 0 1 0 0 1 1 0 0 0 0 0 0 0 0 0 0
0 0 0 0 0 0 0 0 0 0 0 0 0 0 0 0 0 0 0 0 0 0 1 0 0 0 0 0 1 0 0 0 0 0 0 0 0 0 0 0 0 0 0
0 0 0 0 0 0 0 0 0 0 0 0 0 0 0 0 0 0 0 0 0 0 2 1 0 0 0 0 1 1 1 0 0 0 0 0 0 0 0 0 0 0 0
0 0 0 0 0 0 0 0 0 0 0 0 0 0 0 0 1 0 0 1 0 2 4 3 2 0 0 0 1 1 1 0 0 0 0 0 0 0 0 0 0 0 0
0 0 0 0 0 0 0 0 0 0 0 0 0 0 0 0 0 0 0 0 0 0 2 2 1 0 0 1 1 1 1 0 0 0 0 0 0 0 0 0 0 0 0
CIN
-0 -0 -0 -0 -0 -0 -0 -0 -0 -0 -0 -0 -0 -0 -0 -0 -0 -0 -0 -0 -0 -0 -0 -0 -0 -0 -0 -0 -0 -0 -0 -0 -0 -0 -0 -0 -0 -0 -0 -0 -0 -0 -0
-0 -0 -0 -0 -0 -0 -0 -0 -0 -0 -0 -0 -0 -0 -0 -0 -0 -0 -0 -0 -0 -0 -0 -0 -0 -0 -0 -0 -0 -0 -0 -0 -0 -0 -0 -0 -0 -0 -0 -0 -0 -0 -0
-0 -0 -0 -0 -0 -0 -0 -0 -0 -0 -0 -0 -0 -0 -0 -0 -0 -0 -0 -0 -0 -0 -0 -0 -0 -0 -0 -0 -0 -0 -0 -0 -0 -0 -0 -0 -0 -0 -0 -0 -0 -0 -0
-0 -0 -0 -0 -0 -0 -0 -0 -0 -0 -0 -0 -0 -0 -0 -0 -0 -0 -0 -0 -0 -0 -0 -0 -0 -0 -0 -0 -0 -0 -0 -0 -0 -0 -0 -0 -0 -0 -0 -0 -0 -0 -0
-0 -0 -0 -0 -0 -0 -0 -0 -0 -0 -0 -0 -0 -0 -0 -0 -0 -0 -0 -0 -0 -0 -0 -0 -0 -0 -0 -0 -0 -0 -0 -0 -0 -0 -0 -0 -0 -0 -0 -0 -0 -0 -0
-0 -0 -0 -0 -0 -0 -0 -0 -0 -0 -0 -0 -0 -0 -0 -0 -0 -0 -0 -0 -0 -0 -0 -0 -0 -0 -0 -0 -0 -0 -0 -0 -0 -0 -0 -0 -0 -0 -0 -0 -0 -0 -0
-0 -0 -0 -0 -0 -0 -0 -0 -0 -0 -0 -0 -0 -0 -0 -0 -0 -0 -0 -0 -0 -0 -0 -0 -0 -0 -0 -0 -0 -0 -0 -0 -0 -0 -0 -0 -0 -0 -0 -0 -0 -0 -0
-0 -0 -0 -0 -0 -0 -0 -0 -0 -0 -0 -0 -0 -0 -0 -0 -0 -0 -0 -0 -0 -0 -0 -0 -0 -0 -0 -0 -0 -0 -0 -0 -0 -0 -0 -0 -0 -0 -0 -0 -0 -0 -0
-0 -0 -0 -0 -0 -0 -0 -0 -0 -0 -0 -0 -0 -0 -0 -0 -0 -0 -0 -0 -0 -0 -0 -0 -0 -0 -0 -0 -0 -0 -0 -0 -0 -0 -0 -0 -0 -0 -0 -0 -0 -0 -0
-0 -0 -0 -0 -0 -0 -0 -0 -0 -0 -0 -0 -0 -0 -0 -0 -0 -1 -0 -0 -0 -0 -0 -0 -0 -0 -0 -0 -0 -0 -0 -0 -0 -0 -0 -0 -0 -0 -0 -0 -0 -0 -0
-0 -0 -0 -0 -0 -0 -0 -0 -0 -0 -0 -0 -0 -0 -0 -0 -0 -0 -2 -0 -0 -0 -0 -0 -0 -0 -0 -0 -0 -0 -0 -0 -0 -0 -0 -0 -0 -0 -0 -0 -0 -0 -0
-0 -0 -0 -0 -0 -0 -0 -0 -0 -0 -0 -0 -0 -0 -0 -0 -0 -0 -0 -1 -0 -0 -0 -0 -0 -0 -0 -0 -0 -0 -0 -0 -0 -0 -0 -0 -0 -0 -0 -0 -0 -0 -0
-0 -0 -0 -0 -0 -0 -0 -0 -0 -0 -0 -0 -0 -0 -0 -0 -0 -0 -0 -0 -0 -0 -0 -0 -0 -0 -0 -0 -0 -0 -0 -0 -0 -0 -0 -0 -0 -0 -0 -0 -0 -0 -0
-0 -0 -0 -0 -0 -0 -0 -0 -0 -0 -0 -0 -0 -0 -0 -0 -0 -0 -0 -0 -0 -0 -0 -0 -0 -0 -0 -0 -0 -0 -0 -0 -0 -0 -0 -0 -0 -0 -0 -0 -0 -0 -0
-0 -0 -0 -0 -0 -0 -0 -0 -0 -0 -0 -0 -0 -0 -0 -0 -0 -0 -0 -0 -0 -0 -0 -0 -0 -0 -0 -0 -0 -0 -0 -0 -0 -0 -0 -0 -0 -0 -0 -0 -0 -0 -0
-0 -0 -0 -0 -0 -0 -0 -0 -0 -0 -0 -0 -0 -0 -0 -0 -0 -0 -0 -0 -0 -1 -0 -0 -0 -0 -0 -0 -0 -0 -0 -0 -0 -0 -0 -0 -0 -0 -0 -0 -0 -0 -0
-0 -0 -0 -0 -0 -0 -0 -0 -0 -0 -0 -0 -0 -0 -0 -0 -0 -0 -0 -0 -0 -0 -0 -0 -0 -0 -0 -0 -0 -0 -0 -0 -0 -0 -0 -0 -0 -0 -0 -0 -0 -0 -0
-0 -0 -0 -0 -0 -0 -0 -0 -0 -0 -0 -0 -0 -0 -0 -0 -0 -0 -0 -0 -0 -0 -0 -0 -0 -0 -0 -0 -0 -0 -0 -0 -0 -0 -0 -0 -0 -0 -0 -0 -0 -0 -0
-0 -0 -0 -0 -0 -0 -0 -0 -0 -0 -0 -0 -0 -0 -0 -0 -0 -0 -0 -0 -0 -0 -0 -0 -0 -0 -0 -0 -0 -0 -0 -0 -0 -0 -0 -0 -0 -0 -0 -0 -0 -0 -0
-0 -0 -0 -0 -0 -0 -0 -0 -0 -0 -0 -0 -0 -0 -0 -0 -0 -0 -0 -0 -0 -0 -0 -0 -0 -0 -0 -0 -0 -0 -0 -0 -0 -0 -0 -0 -0 -0 -0 -0 -0 -0 -0
-0 -0 -0 -0 -0 -0 -0 -0 -0 -0 -0 -0 -0 -0 -0 -0 -0 -0 -0 -0 -0 -0 -0 -0 -0 -0 -0 -0 -0 -0 -0 -0 -0 -0 -0 -0 -0 -0 -0 -0 -0 -0 -0
-0 -0 -0 -0 -0 -0 -0 -0 -0 -0 -0 -0 -0 -0 -0 -0 -0 -0 -0 -0 -0 -0 -0 -4 -2 -0 -0 -0 -0 -0 -0 -0 -0 -0 -0 -0 -0 -0 -0 -0 -0 -0 -0
-0 -0 -0 -0 -0 -0 -0 -0 -0 -0 -0 -0 -0 -0 -0 -0 -0 -0 -0 -0 -0 -0 -0 -0 -0 -0 -0 -0 -0 -0 -0 -0 -0 -0 -0 -0 -0 -0 -0 -0 -0 -0 -0
-0 -0 -0 -0 -0 -0 -0 -0 -0 -0 -0 -0 -0 -0 -0 -0 -0 -0 -0 -0 -0 -0 -0 -0 -0 -0 -0 -0 -0 -0 -0 -0 -0 -0 -0 -0 -0 -0 -0 -0 -0 -0 -0
-0 -0 -0 -0 -0 -0 -0 -0 -0 -0 -0 -0 -0 -0 -0 -0 -1 -0 -0 -0 -0 -0 -0 -1 -4 -0 -0 -0 -0 -0 -0 -0 -0 -0 -0 -0 -0 -0 -0 -0 -0 -0 -0
-0 -0 -0 -0 -0 -0 -0 -0 -0 -0 -0 -0 -0 -0 -0 -0 -0 -0 -0 -0 -0 -0 -1 -1 -0 -0 -0 -0 -0 -0 -0 -0 -0 -0 -0 -0 -0 -0 -0 -0 -0 -0 -0
Wind_Speed
24 24 23 23 23 23 23 24 24 24 25 25 25 26 25 23 23 24 24 24 26 26 23 22 23 23 23 22 21 23 23 22 21 20 17 12 12 10 11 12 14 16 20
26 26 25 25 25 25 25 25 26 26 26 26 26 25 25 25 24 24 25 24 24 25 23 21 22 23 23 22 22 23 23 21 20 17 17 14 13 9 10 11 14 15 19
28 28 28 27 27 27 27 27 27 27 27 27 26 25 26 26 26 25 25 25 24 24 23 23 24 23 23 23 23 23 21 19 19 18 17 14 13 8 8 10 12 14 18
31 31 30 30 29 29 29 29 29 29 29 29 28 28 27 27 27 26 26 26 26 24 23 24 24 21 22 22 22 22 20 19 19 17 17 15 11 10 9 8 11 14 16
33 32 32 31 30 31 31 31 31 30 30 30 29 29 28 27 26 26 26 27 27 26 24 23 24 24 22 22 22 21 20 19 18 16 15 15 13 9 9 9 10 12 15
33 34 32 32 32 32 32 32 32 32 31 30 30 30 30 28 27 28 27 27 26 27 27 25 24 24 23 20 20 19 18 17 17 15 14 14 13 9 8 8 9 12 16
34 33 32 32 33 32 32 32 32 32 32 32 31 31 31 30 30 29 29 28 27 27 27 26 25 24 24 21 20 19 18 18 17 16 13 13 12 10 8 6 8 10 15
35 34 33 32 33 32 32 32 32 32 33 33 33 33 32 31 31 31 30 29 29 28 28 26 25 24 22 19 19 19 18 17 16 15 15 14 13 8 9 8 9 11 14
35 34 33 31 32 31 32 33 32 32 33 33 33 34 33 33 32 32 31 30 29 29 28 26 26 24 21 19 18 19 18 17 15 14 13 13 11 9 7 8 8 9 14
35 35 34 32 31 31 32 32 32 32 34 33 35 34 34 34 33 32 32 31 30 30 29 28 26 26 23 18 18 17 18 17 13 12 11 11 11 11 11 13 9 10 13
36 35 34 31 31 30 30 31 32 33 34 35 36 35 35 33 33 32 32 32 31 30 29 29 29 26 25 21 19 21 18 15 15 13 13 14 15 15 14 14 14 14 12
37 37 36 34 32 31 30 30 30 33 36 36 36 37 35 34 33 33 32 32 32 31 31 29 28 27 25 24 21 20 17 16 15 15 15 18 17 17 15 14 14 14 14
41 40 39 38 36 34 33 32 33 32 34 36 37 37 37 35 34 33 33 33 33 33 31 29 28 28 26 24 23 21 19 17 17 18 18 19 18 16 13 12 12 12 12
46 45 42 41 39 37 35 34 33 34 34 34 36 38 37 36 35 34 33 32 31 32 32 30 29 28 27 27 23 22 23 20 18 19 17 17 16 15 14 14 12 11 11
47 46 45 43 41 40 38 36 36 33 32 34 35 36 38 39 36 34 35 35 34 33 32 30 30 30 28 28 27 26 24 21 21 18 18 18 18 16 15 14 13 11 13
48 46 45 44 43 41 40 39 37 35 32 33 35 36 38 40 40 39 39 39 38 37 35 34 33 33 32 30 30 29 26 21 22 20 19 19 16 16 16 15 13 13 10
47 46 45 45 44 44 43 42 43 38 36 37 38 37 40 43 42 41 40 40 40 39 39 37 36 36 35 33 32 32 30 24 22 23 20 19 18 16 16 15 13 12 10
44 44 44 43 43 43 43 44 42 42 43 42 38 37 38 42 43 43 42 41 42 40 41 40 39 37 37 36 34 33 32 26 24 24 23 20 19 17 17 16 13 11 9
40 41 41 41 42 43 43 43 44 45 46 46 43 41 39 42 44 45 44 44 44 43 41 42 41 39 38 37 35 34 32 30 26 26 25 22 19 19 19 17 15 12 9
39 40 40 41 41 41 42 43 44 46 48 49 48 46 40 39 45 47 46 45 44 44 43 42 42 40 39 38 36 34 32 32 28 27 26 24 21 22 20 17 15 12 9
40 41 40 40 40 39 40 42 43 44 46 47 49 46 43 42 46 48 48 47 46 45 44 43 42 41 40 38 36 35 32 34 31 29 26 24 23 22 22 18 15 13 10
32 36 39 40 41 40 41 41 42 44 45 47 46 44 45 44 45 47 48 49 47 45 43 43 43 43 40 39 36 36 33 35 32 29 27 24 24 23 22 19 16 13 11
15 21 30 36 39 43 42 40 42 43 45 46 45 45 43 42 44 46 48 49 48 46 44 43 44 43 40 38 36 36 35 36 33 28 26 24 24 23 22 20 17 15 12
4 8 13 26 33 38 38 38 40 44 46 47 46 45 45 43 43 45 47 47 47 46 45 44 44 44 41 38 36 38 36 32 32 29 26 24 24 25 23 21 18 16 12
3 2 3 13 29 30 30 31 34 39 42 43 46 46 44 43 42 42 45 46 47 45 46 45 44 45 44 39 37 39 35 30 31 28 27 25 24 24 24 21 19 15 12
10 6 2 3 6 29 32 33 32 33 36 38 41 41 41 42 41 42 46 48 49 49 46 45 46 45 42 39 36 37 32 30 31 30 29 27 25 22 23 22 19 15 12
Wind_Direction
319 321 322 323 323 324 325 324 319 316 312 307 300 294 292 293 290 287 286 286 280 281 289 290 295 295 295 298 301 294 291 291 292 297 301 310 309 317 327 339 348 355 360
311 313 315 317 317 318 318 318 317 317 316 311 306 300 295 291 290 290 285 285 283 284 289 290 296 296 295 296 297 294 292 292 291 290 292 298 300 312 322 335 344 356 359
303 304 306 309 311 310 310 311 313 313 313 314 312 307 301 296 292 290 288 283 284 284 285 284 291 291 292 294 293 295 295 294 290 288 290 291 298 299 315 332 341 354 359
296 298 298 301 303 305 305 304 306 308 310 309 310 307 304 300 295 292 289 284 283 284 283 281 286 293 290 292 294 295 294 291 288 287 287 286 290 290 302 319 329 341 348
292 293 295 299 300 300 301 302 302 303 304 305 306 306 304 301 298 296 293 287 284 281 282 282 282 286 289 291 291 291 291 288 287 285 286 282 281 279 285 310 324 338 346
291 291 293 296 297 297 299 299 300 300 300 303 305 304 302 302 299 294 292 291 287 282 279 279 280 281 284 288 290 291 290 288 284 283 284 278 277 276 288 305 322 332 335
292 291 291 293 295 295 296 296 297 298 300 299 300 301 300 299 298 295 291 289 289 285 280 277 276 279 275 282 286 288 288 287 286 282 284 280 278 279 286 304 319 333 338
293 291 289 289 291 294 295 295 295 296 296 296 298 298 297 299 297 294 292 288 286 286 283 277 274 273 276 279 281 280 284 285 286 285 286 282 286 284 287 306 319 332 340
296 292 289 286 287 290 291 292 293 294 294 294 295 296 296 295 296 294 291 288 285 283 284 280 272 270 271 271 275 276 278 283 287 286 285 284 285 289 296 308 315 330 331
299 297 294 288 285 287 289 290 291 291 291 292 292 293 294 293 294 293 290 286 284 282 281 279 274 269 265 263 270 272 276 276 279 280 280 280 283 285 291 297 311 322 331
300 299 296 291 285 286 288 289 289 289 289 289 288 289 290 292 292 293 290 285 282 280 278 278 273 268 263 259 264 266 273 269 268 271 272 274 275 279 283 293 300 311 325
299 296 294 291 286 284 285 287 288 288 286 286 286 286 287 288 291 290 290 285 281 278 275 275 274 267 262 257 258 263 263 264 262 264 266 266 269 273 279 289 299 310 321
293 291 290 288 285 282 282 283 284 286 286 284 282 282 283 285 287 289 289 286 281 277 274 273 271 268 260 256 255 256 258 260 257 259 261 263 266 272 279 288 300 314 324
288 286 286 285 284 282 280 279 280 282 283 284 282 280 279 281 283 285 285 287 283 278 273 269 267 266 260 255 252 252 254 254 256 258 260 260 264 266 273 281 289 301 311
286 284 282 282 281 281 279 277 276 279 280 280 281 280 277 276 279 281 281 279 278 276 273 267 262 260 257 254 250 250 253 253 253 254 255 254 256 261 269 274 283 291 298
285 284 282 279 278 278 277 277 275 275 278 278 279 278 276 273 275 276 276 275 274 271 267 263 259 256 255 253 248 247 248 250 252 249 251 252 252 256 261 267 275 282 295
284 283 281 279 277 274 274 274 274 275 274 274 275 276 274 271 270 272 273 272 269 267 262 260 258 254 253 252 249 246 246 249 250 248 248 249 250 253 254 261 267 277 285
285 282 281 279 277 275 273 271 271 271 271 270 272 273 273 271 269 268 269 270 266 263 260 257 256 254 251 251 248 246 245 246 246 247 246 246 246 246 250 255 260 267 273
287 284 281 279 276 274 272 271 270 268 268 268 269 270 272 271 269 267 265 263 261 260 259 256 254 253 250 249 248 247 245 244 243 243 244 243 241 241 246 250 255 260 265
287 284 281 279 277 274 272 269 268 267 265 264 265 267 271 271 266 264 262 259 258 257 256 255 253 251 248 247 246 247 245 241 239 240 241 239 238 239 241 243 247 250 258
286 283 280 278 276 274 272 270 268 266 265 264 263 264 267 267 265 261 258 255 255 255 254 253 251 248 246 246 244 245 244 239 237 239 238 235 234 234 238 240 243 248 252
296 287 281 276 274 272 271 270 268 267 265 264 264 264 263 264 263 260 256 253 252 253 253 251 249 246 244 243 243 242 243 238 234 235 235 232 230 232 233 235 236 240 246
313 304 292 281 274 269 269 269 267 266 265 264 263 262 262 262 261 258 254 250 249 250 250 249 247 244 243 243 244 242 240 237 233 233 230 226 226 226 228 230 230 234 240
286 322 313 295 279 270 269 270 269 265 263 262 261 260 259 260 260 257 252 249 247 247 248 246 245 242 241 242 242 239 239 238 231 230 225 223 223 224 226 227 228 231 237
23 232 227 323 287 280 279 275 272 267 262 261 258 256 256 256 257 256 250 246 244 245 245 244 242 240 239 239 240 236 237 233 227 225 224 222 219 218 222 223 223 226 231
40 46 86 182 223 280 271 271 274 271 264 260 256 254 254 253 256 256 248 244 242 241 243 242 239 236 237 237 237 235 235 228 223 221 222 220 216 214 217 219 217 221 225